Theta_e
318 326 325 323 325 325 328 330 331 330 327 328 332 333 332 335 339 353 343 344 350 347 344 339 339 339 346 348 345 339 339 339 338 340 340 339 341 341 341 339 336 334 329 331 328 322 319 317 314
320 326 326 325 326 326 329 330 330 329 326 327 328 330 332 338 341 345 346 342 351 348 341 343 340 337 343 347 345 341 341 341 340 341 341 340 340 337 338 335 333 328 327 327 321 318 315 313 311
323 328 327 327 324 325 328 329 327 325 325 325 326 328 330 338 337 337 342 343 352 350 341 345 341 338 339 346 346 344 343 343 341 342 342 341 339 334 335 333 329 324 323 320 317 314 312 311 310
325 328 328 327 328 324 325 326 325 325 325 325 326 328 328 334 335 336 342 344 350 352 347 347 340 340 336 341 347 347 346 346 344 344 343 341 338 333 333 331 326 323 321 318 315 313 313 313 313
324 327 330 331 328 327 326 325 324 324 325 325 325 327 331 334 332 336 343 343 343 352 348 347 339 339 334 339 345 349 348 348 346 345 344 341 338 334 332 329 325 322 318 315 315 315 315 316 316
324 328 331 330 330 330 328 325 323 323 324 326 325 325 331 332 329 333 344 344 342 348 349 349 336 340 335 337 340 348 349 350 348 347 345 341 339 337 333 328 324 320 316 316 316 317 317 318 319
323 327 331 331 330 330 330 326 325 323 325 327 328 325 330 331 329 328 342 344 344 345 350 351 337 341 340 335 338 343 349 350 350 349 346 343 340 339 334 327 323 319 317 317 317 318 318 318 319
322 326 328 330 331 330 330 327 326 325 327 328 329 329 332 330 328 328 330 344 344 343 349 355 346 343 349 341 340 341 346 350 350 350 347 345 342 340 332 327 322 318 317 318 319 318 319 319 320
321 324 326 325 327 330 329 329 328 327 327 327 328 328 328 328 327 327 328 337 344 344 347 353 347 349 350 351 345 343 345 348 349 348 347 344 342 337 332 327 326 318 317 318 319 320 319 319 321
321 322 322 323 324 326 328 329 329 329 328 329 329 328 327 327 328 326 328 331 345 345 344 348 345 347 347 345 347 344 345 346 346 345 344 342 338 340 337 334 327 330 323 319 320 320 319 321 321
320 323 322 322 323 324 324 326 329 329 330 329 329 329 328 328 328 327 327 330 335 338 342 347 344 346 345 343 345 345 345 344 341 343 343 340 339 340 339 337 335 331 329 326 322 320 319 320 324
319 321 322 323 323 323 324 324 326 328 330 330 329 328 328 326 326 326 327 329 330 337 340 347 344 345 344 343 345 344 345 342 344 338 343 345 339 338 342 339 339 339 338 333 329 334 334 334 333
317 319 320 322 323 323 323 323 324 326 328 328 328 327 326 325 326 325 324 328 330 335 340 347 348 348 344 345 345 345 342 344 344 344 343 346 342 344 341 345 341 344 341 339 337 334 337 336 335
318 319 320 320 321 322 322 322 323 324 325 325 324 324 323 322 323 325 325 325 331 333 335 341 347 347 346 344 348 349 340 343 343 344 344 342 347 339 346 344 345 342 343 341 340 339 338 338 338
317 317 318 318 319 320 321 321 322 322 321 321 322 324 323 322 322 325 324 325 333 333 335 338 346 345 346 343 348 349 348 341 343 342 344 344 342 347 345 346 343 343 340 340 339 340 341 339 338
316 316 316 316 317 318 319 320 321 321 321 321 321 322 322 322 323 322 323 324 325 333 330 332 342 350 348 345 342 344 349 346 346 343 346 347 345 346 348 346 344 343 342 340 341 338 338 339 338
316 317 316 316 317 317 317 317 317 318 319 320 321 322 320 322 323 322 324 323 325 327 332 329 337 346 346 347 343 343 346 349 347 346 344 347 349 347 345 348 344 344 342 341 340 342 342 341 339
316 317 317 317 318 316 316 316 317 317 318 318 319 319 320 321 322 323 323 323 322 326 330 336 344 348 344 341 342 342 347 347 346 345 344 345 346 347 345 343 347 344 342 340 338 342 342 341 340
316 317 317 319 319 318 318 318 318 318 319 319 320 321 321 322 322 321 322 321 321 324 327 331 340 341 350 348 348 348 348 345 342 342 341 340 339 343 348 348 345 345 342 339 339 338 340 339 344
317 317 317 317 318 317 317 317 318 318 320 320 321 321 321 321 321 323 321 320 321 326 327 330 331 340 343 344 346 346 347 347 345 343 342 338 340 340 344 345 345 343 340 336 336 340 342 344 342
316 315 315 315 316 317 317 317 317 317 318 319 320 321 321 322 322 323 324 322 321 323 326 327 330 332 339 347 341 339 342 344 345 344 341 339 338 336 338 344 343 341 338 336 341 344 344 345 347
315 315 315 315 316 316 316 318 318 319 319 320 320 320 320 320 321 323 323 324 322 324 324 323 325 328 331 332 341 348 349 346 342 343 348 342 340 339 338 339 340 339 336 340 338 345 346 347 346
314 315 315 314 315 315 315 316 317 318 318 318 318 317 317 318 319 320 321 319 320 319 321 321 321 326 328 332 333 335 341 344 340 339 340 346 346 346 341 342 343 342 340 342 345 345 350 350 351
315 315 315 315 315 317 315 316 317 318 318 318 318 317 316 316 318 319 319 318 319 319 320 319 323 322 323 327 330 331 332 337 342 343 337 336 337 336 334 342 345 341 338 337 346 349 349 354 354
314 316 315 317 318 319 317 318 319 319 318 318 318 317 317 317 318 318 321 320 318 318 317 318 319 321 322 322 324 326 330 330 331 338 340 343 338 335 332 331 336 332 334 331 331 332 340 358 354
315 316 318 320 322 321 319 323 319 319 318 317 317 316 316 317 319 319 321 322 319 318 317 317 318 319 319 320 322 322 324 328 329 328 329 334 343 344 341 331 334 335 332 332 331 337 350 356 357
318 315 315 319 320 322 318 319 321 319 318 317 317 317 317 318 320 320 321 320 319 318 318 318 317 317 317 319 320 322 322 325 326 328 327 330 338 339 339 341 340 338 335 344 348 350 356 357 356
317 316 317 319 322 319 316 317 317 321 320 318 317 317 317 318 318 319 318 319 319 318 317 317 318 317 317 316 319 320 322 324 326 327 327 327 328 329 337 337 338 349 349 353 355 357 357 356 355
318 317 316 319 322 326 322 320 321 321 321 320 318 317 317 318 317 317 318 318 318 317 317 318 319 320 318 316 320 320 321 323 323 325 326 327 331 334 337 331 344 345 355 356 356 357 356 355 354
315 317 318 322 322 318 319 318 319 320 319 320 320 318 317 317 318 318 318 318 317 317 317 317 318 319 318 319 319 319 319 321 324 322 322 329 330 334 337 341 341 346 344 353 355 357 356 355 352
Wind_Speed
14 20 12 13 6 7 15 17 21 8 6 14 13 10 15 22 12 7 5 14 25 25 29 30 28 27 24 24 23 22 22 21 20 20 18 18 16 15 15 13 12 11 10 9 7 7 6 5 6
11 15 13 5 9 12 12 17 18 1 13 13 11 12 6 19 22 18 17 12 22 22 25 25 28 28 25 24 23 23 22 21 21 19 18 17 16 15 13 12 11 10 10 8 6 5 5 4 5
12 13 8 5 10 14 14 5 10 14 11 5 4 7 10 13 17 8 10 8 21 21 23 22 27 27 27 24 23 22 22 20 20 19 18 17 16 15 13 11 10 9 9 8 6 6 6 5 5
11 10 7 9 15 17 21 6 10 12 6 2 3 7 2 17 12 11 6 3 14 21 21 21 28 26 26 25 23 23 23 21 20 18 18 17 16 15 14 12 10 8 7 6 6 5 5 5 4
18 7 12 17 18 19 18 8 9 8 11 2 7 10 2 16 14 10 5 1 8 21 22 22 29 28 26 26 24 23 22 21 20 18 17 17 16 16 14 12 10 8 7 6 6 5 4 4 4
11 12 15 16 20 21 16 6 4 11 15 9 11 10 4 15 15 9 7 4 11 23 24 24 30 29 27 26 26 23 22 20 20 18 18 17 16 14 13 12 11 9 8 7 5 5 5 5 4
17 14 21 23 22 22 21 14 10 10 15 13 5 13 3 17 13 14 4 3 9 24 28 23 30 29 28 28 26 26 22 20 19 17 17 16 16 14 13 12 11 10 8 8 8 7 7 7 7
14 15 26 23 20 24 22 19 15 14 13 8 3 6 6 10 9 12 15 2 9 22 29 23 27 29 24 27 27 26 24 20 19 17 17 16 15 15 14 14 13 11 10 10 10 9 9 9 11
21 16 18 27 28 23 20 16 20 19 13 14 5 10 11 9 7 13 15 5 8 18 29 27 27 25 22 21 26 26 24 23 20 18 17 16 15 15 15 15 12 12 12 12 11 11 11 12 14
19 16 27 25 24 25 28 24 14 19 16 17 16 12 11 14 1 8 14 11 1 8 27 31 29 26 24 22 23 26 25 23 21 19 18 18 16 14 14 13 15 13 13 14 14 14 14 15 15
23 23 24 25 24 26 28 27 15 11 16 16 19 16 9 14 7 7 12 4 6 19 17 33 32 27 25 23 25 24 21 21 22 21 19 18 16 16 14 17 17 16 16 17 17 18 20 19 17
25 26 25 23 25 25 25 24 28 12 10 17 19 12 10 6 5 7 11 9 9 11 20 32 35 30 25 21 26 24 23 25 23 27 23 19 21 18 18 17 17 15 14 17 19 20 18 14 14
24 23 24 25 24 22 24 23 20 19 17 8 17 13 12 11 11 13 10 7 3 5 8 8 31 29 29 26 24 24 25 27 25 25 27 25 23 21 21 17 19 20 15 17 17 19 22 23 19
18 21 22 21 20 20 19 22 20 20 17 19 16 14 15 14 15 16 13 10 11 7 7 3 25 27 27 28 16 14 28 26 27 25 28 28 23 24 21 23 20 21 18 16 21 21 19 21 21
16 18 19 16 18 25 17 24 26 20 20 22 22 19 17 13 18 13 9 7 15 12 7 10 7 29 26 30 18 13 14 23 28 25 27 30 29 24 26 23 24 24 23 20 22 17 12 19 19
11 15 17 21 22 23 17 24 21 20 21 24 24 19 15 14 16 18 13 9 6 12 13 15 11 19 25 24 26 21 11 16 17 23 22 29 31 28 21 24 25 25 22 23 22 23 22 21 22
14 15 21 23 23 22 26 25 21 19 19 20 13 17 10 13 7 20 15 13 9 6 6 12 16 12 25 21 25 22 22 20 12 14 25 19 26 28 32 24 27 21 23 24 18 18 21 21 24
17 22 19 19 22 8 11 17 18 16 18 8 11 12 13 10 11 14 12 14 7 4 4 9 14 10 25 24 25 16 21 25 19 19 22 21 26 27 30 32 26 23 24 26 22 20 19 23 23
20 21 17 19 14 16 15 14 16 16 17 15 15 14 13 12 10 12 6 11 8 7 5 8 11 16 18 28 27 25 23 23 29 31 33 25 25 27 33 28 30 26 24 25 23 26 22 28 25
14 14 18 21 17 15 12 16 17 19 20 19 15 14 14 13 13 10 10 13 8 8 10 9 9 13 18 28 19 15 19 22 24 25 27 31 23 30 34 34 29 30 32 29 31 30 24 23 25
13 16 17 19 17 14 9 17 20 26 25 22 20 15 14 14 13 12 13 15 16 12 9 6 5 6 11 13 22 18 18 20 15 21 27 30 33 37 28 30 28 25 27 27 32 34 29 22 22
17 16 17 15 16 12 13 17 17 15 13 24 21 21 18 15 12 8 8 10 15 12 13 4 3 3 5 7 10 20 19 20 23 22 14 23 24 32 31 30 30 34 30 31 36 36 34 25 23
16 12 15 11 14 15 20 13 17 19 20 15 12 8 6 5 6 8 9 10 10 15 6 9 4 3 8 5 6 8 11 17 27 26 26 24 11 17 29 25 28 23 25 31 31 40 35 27 26
13 12 14 16 13 16 21 19 18 17 17 15 17 12 7 8 8 7 11 9 2 3 10 11 11 6 5 8 3 10 10 9 15 21 28 33 37 43 31 16 18 16 26 40 26 34 40 31 25
15 17 12 14 13 16 22 21 17 14 4 11 17 13 9 6 6 5 12 9 8 9 7 2 6 9 5 6 5 11 12 12 20 20 16 23 36 35 40 22 11 37 52 56 39 40 67 29 31
16 15 10 11 14 17 15 9 12 8 13 10 8 4 2 4 6 6 7 12 20 16 13 9 3 5 8 8 9 12 13 12 18 20 20 22 24 28 32 34 48 64 50 61 53 51 42 30 29
20 15 16 10 14 15 16 17 22 11 7 10 10 9 4 5 8 8 10 9 7 4 5 4 6 8 13 14 14 14 16 20 21 20 22 22 22 29 31 26 54 52 51 44 42 42 33 29 28
17 15 9 4 13 17 15 18 13 11 18 12 9 6 8 7 9 8 3 4 9 9 12 15 17 19 18 19 20 19 19 23 24 24 25 23 27 31 28 21 23 32 36 38 36 33 29 27 24
11 15 13 10 7 2 8 8 8 5 11 7 8 3 3 5 4 5 8 9 6 10 13 14 14 15 24 23 23 21 23 21 20 23 25 26 25 26 25 24 26 27 30 34 35 30 28 28 26
20 13 16 7 14 14 15 16 13 2 4 12 11 9 9 10 12 11 10 9 5 9 15 17 17 14 17 21 22 20 21 21 21 24 24 24 25 25 24 23 29 31 33 31 30 30 27 27 27
Wind_Direction
311 312 296 290 242 225 249 245 260 292 324 349 25 349 17 41 73 137 238 72 116 139 154 154 155 154 162 164 165 163 162 158 159 156 154 151 149 146 142 140 137 133 130 129 126 123 124 125 112
313 307 278 278 244 241 239 243 273 70 45 27 11 339 326 74 80 107 89 48 128 144 157 161 161 156 163 169 169 168 167 165 164 161 158 157 154 150 147 146 142 137 132 132 134 132 130 126 119
302 282 289 237 244 251 248 253 334 52 63 32 1 278 289 83 56 54 47 92 131 144 157 171 167 163 164 171 173 172 171 171 169 166 164 163 159 153 153 152 149 145 146 147 148 143 140 135 123
270 260 240 259 252 246 263 335 5 345 71 4 275 310 246 81 63 26 21 19 136 147 157 179 172 171 167 171 177 179 177 175 175 172 171 170 164 159 161 160 158 159 157 150 157 155 149 141 137
254 262 260 251 240 249 274 329 346 331 315 123 203 237 358 84 69 25 25 222 205 157 162 180 179 174 172 173 180 184 185 181 179 178 179 178 173 169 169 167 168 172 166 169 175 175 174 165 170
256 238 250 251 247 250 229 141 286 272 280 284 246 228 179 90 46 14 21 297 210 163 167 182 183 180 175 177 181 187 190 189 186 185 186 185 182 181 177 176 180 182 182 188 192 197 210 213 213
243 253 247 251 258 259 240 163 197 236 254 253 306 228 85 57 25 346 12 316 240 169 161 177 182 185 179 181 183 185 194 192 193 192 194 194 191 190 189 188 193 193 197 204 208 212 223 230 239
243 247 258 256 251 250 272 168 177 214 243 261 43 275 86 63 7 348 340 356 211 175 160 161 176 181 183 183 185 187 192 196 198 199 201 203 201 201 202 200 203 206 209 220 228 227 232 242 247
238 245 247 250 256 257 253 232 184 190 214 254 262 245 298 68 335 357 330 318 280 184 159 159 168 174 181 178 184 188 193 195 200 204 206 207 206 213 215 215 215 218 222 227 233 238 245 246 251
233 237 242 251 259 263 267 270 242 174 196 221 240 259 290 281 118 342 313 326 354 212 159 156 167 173 180 182 190 186 191 194 199 205 209 207 202 218 217 229 221 226 235 239 239 243 248 251 255
232 242 246 246 249 264 272 273 251 217 217 225 227 218 259 333 46 301 299 15 23 328 178 158 167 174 181 189 191 179 186 191 198 200 205 211 202 208 224 223 227 234 239 246 248 246 245 248 254
244 241 246 255 266 269 263 266 269 228 254 237 224 267 274 292 312 296 312 43 356 339 306 154 164 170 184 196 185 183 182 188 193 201 200 202 197 208 215 216 227 235 229 240 237 249 252 247 249
248 247 253 247 257 266 272 279 283 271 217 222 221 223 269 282 277 261 272 150 158 313 285 154 159 167 180 202 182 185 189 190 190 200 199 197 206 205 211 216 222 226 225 235 237 233 245 239 241
262 252 251 264 264 270 270 278 270 263 278 270 268 213 218 247 257 245 230 240 158 170 258 116 169 173 182 204 226 199 189 198 190 199 199 205 204 209 210 219 223 232 228 227 236 229 232 241 243
272 280 277 251 269 255 240 258 251 262 264 264 257 245 245 250 248 277 213 238 168 175 197 248 174 183 188 208 232 257 202 199 196 199 202 206 205 209 216 217 224 225 234 235 238 235 237 236 249
262 263 259 255 243 245 238 252 250 248 248 251 255 253 240 248 259 235 195 165 134 157 194 218 220 185 180 191 219 237 269 225 197 200 217 209 208 206 220 220 224 227 227 239 243 245 247 251 251
247 253 250 250 245 240 216 240 249 255 265 262 248 235 240 248 264 268 178 140 151 148 194 206 209 197 186 189 215 210 220 259 221 213 220 216 205 215 221 229 230 236 230 234 243 246 243 248 252
246 233 237 251 267 200 224 248 253 262 274 227 256 256 251 235 229 262 164 135 130 138 194 225 204 156 191 202 215 207 221 233 236 239 239 224 217 220 231 226 235 238 235 237 240 244 240 249 252
258 282 290 289 237 190 217 249 267 268 261 219 220 230 235 231 234 228 131 129 142 162 199 209 206 197 170 184 191 185 196 215 236 241 240 242 238 231 220 228 229 233 228 232 238 241 243 250 251
292 290 276 280 289 293 270 259 265 270 267 270 251 219 227 230 214 193 203 154 159 185 202 199 199 207 205 206 207 197 179 211 215 239 240 233 237 232 225 225 224 231 241 239 245 235 225 240 246
261 262 271 274 275 281 273 278 269 260 252 250 254 247 241 232 214 198 192 187 172 194 205 233 207 209 202 209 217 224 222 213 216 233 241 241 242 242 229 223 229 233 243 252 247 231 222 219 243
258 250 256 269 264 269 271 273 265 262 268 219 232 230 231 228 219 188 168 162 168 178 182 210 304 307 267 234 212 190 204 228 222 238 254 251 242 239 236 232 236 239 242 248 247 244 234 214 228
255 276 290 286 280 270 259 259 264 261 261 211 194 208 210 213 216 180 196 205 195 218 159 175 229 207 277 235 185 245 213 249 258 243 237 256 266 231 235 226 219 239 256 268 253 248 243 221 217
298 290 283 271 260 257 255 254 263 260 276 225 166 159 177 206 200 193 167 122 226 220 199 211 185 217 208 258 185 259 236 271 263 254 246 240 246 253 253 227 252 252 261 269 266 273 256 222 223
260 289 258 248 234 247 245 241 244 245 4 190 141 165 174 189 195 179 145 156 195 187 228 217 243 234 231 259 251 226 231 221 260 259 255 240 235 241 250 243 218 264 239 244 269 278 269 229 219
242 233 268 285 293 299 308 297 229 317 175 147 96 83 231 206 188 198 193 176 179 180 203 218 283 314 296 295 272 274 274 254 254 265 266 260 258 249 247 233 219 222 245 232 235 238 246 228 224
248 239 243 274 279 275 273 258 279 262 143 151 178 187 178 234 197 205 183 192 204 224 160 193 222 238 271 286 263 253 261 258 250 252 254 262 270 253 246 251 234 230 230 228 222 231 231 225 221
242 262 241 262 264 266 270 276 282 344 199 172 208 169 193 181 195 197 178 213 231 236 246 246 231 224 230 244 252 253 252 253 254 257 255 257 263 263 271 273 272 234 227 221 224 227 229 226 219
253 253 233 204 217 278 288 280 7 350 66 45 1 237 227 247 239 261 247 252 298 324 313 297 275 247 231 245 243 242 250 249 252 254 255 257 256 258 264 260 272 257 228 219 220 221 221 220 214
262 285 242 238 255 240 260 263 179 285 314 164 239 306 244 228 238 241 245 241 236 285 293 308 307 288 275 268 252 243 250 254 251 245 253 259 258 259 257 254 250 246 238 231 225 221 219 213 205